Regional Weather Roundup
Issued by NWS Upton, NY

Current Version | Previous Version | Graphics & Text | Print | Product List | Glossary Off
Versions: 1 2 3 4 5 6 7 8 9 10 11 12 13 14 15 16 17 18 19 20 21 22 23 24 25 26 27 28 29 30 31 32 33 34 35 36 37 38 39 40 41 42 43 44 45 46 47 48 49 50

905
ASUS41 KOKX 200708
RWROKX

REGIONAL WEATHER ROUNDUP
NATIONAL WEATHER SERVICE NEW YORK NY
300 AM EDT WED SEP 20 2017

NOTE: "FAIR" INDICATES FEW OR NO CLOUDS BELOW 12,000 FEET WITH NO
SIGNIFICANT WEATHER AND/OR OBSTRUCTIONS TO VISIBILITY.

NYZ071-072-176-178-NJZ106-104-200800-
NEW YORK CITY METRO AREA

CITY           SKY/WX    TMP DP  RH WIND       PRES   REMARKS
Central Park   CLOUDY    72  64  76 NE13G21   29.85F
Bronx Bot Gard   N/A     70  63  78 N7        29.85R
LaGuardia APRT CLOUDY    72  65  78 N12       29.82F
Kennedy INTL   CLOUDY    72  64  76 N17G24    29.81F
Breezy Point     N/A     70 N/A N/A N16G24      N/A
Newark/Liberty CLOUDY    72  64  76 N15       29.83F
Teterboro      MOCLDY    72  64  76 N10G18    29.82F
$$

NYZ177-179-078>081-200800-
LONG ISLAND NEW YORK

CITY           SKY/WX    TMP DP  RH WIND       PRES   REMARKS
Jones Beach      N/A     72 N/A N/A N28G35      N/A
Matinecock PT    N/A     72 N/A N/A NE21        N/A
Farmingdale    CLOUDY    71  65  81 N21G28    29.79F
MacArthur/ISP  CLOUDY    70  67  90 N18G28    29.77F
Shirley        CLOUDY    72  67  84 N13G23    29.78F
Mt Sinai Harb    N/A    N/A N/A N/A N21G28      N/A
Westhampton    CLOUDY    70  65  84 N24G30    29.77F
East Hampton   CLOUDY    67  65  92 N16G26    29.77F
Montauk          N/A     69  67  93 N18G28    29.77F
$$

NYZ052-065-067-200800-
HUDSON VALLEY

CITY           SKY/WX    TMP DP  RH WIND       PRES   REMARKS
White Plains   CLOUDY    70  63  78 N13G21    29.84F
Larchmont Harb   N/A     72 N/A N/A N15         N/A
Croton On Huds   N/A     70 N/A N/A N2G9        N/A
Newburgh       MOCLDY    70  64  83 N12       29.91F
Montgomery     PTCLDY    69  62  78 NE13      29.90F
Poughkeepsie   MOCLDY    69  61  75 N6        29.89F
Albany         CLOUDY    63  60  90 N7        29.97F
$$

NJZ001-105-106-008-010-013-015-019>022-104-200800-
NEW JERSEY

CITY           SKY/WX    TMP DP  RH WIND       PRES   REMARKS
Newark/Liberty CLOUDY    72  64  76 N15       29.83F
Teterboro      MOCLDY    72  64  76 N10G18    29.82F
Caldwell       PTCLDY    70  64  81 VRB5      29.86F
Somerville     NOT AVBL
Linden         PTSUNNY   72  63  72 NE9       29.83F
Perth Amboy      N/A     72 N/A N/A N13G20      N/A
Sussex         MOCLDY    70  63  78 NE9       29.90F
Andover          N/A     69  63  81 VRB5      29.90F
Trenton        CLOUDY    72  64  76 N9G20     29.83F
Millville      CLOUDY    73  67  81 NW10      29.82S
Atlantic City  CLOUDY    70  67  90 N15G22    29.78F
Wrightstown    CLOUDY    70  65  84 N12       29.79F
Toms River     CLOUDY    71  66  84 N14G21    29.80F
Belmar         CLOUDY    71  65  81 N14G21    29.81F
$$

PAZ047>061-062-071-200800-
EASTERN PENNSYLVANIA

CITY           SKY/WX    TMP DP  RH WIND       PRES   REMARKS
Philadelphia   CLOUDY    71  63  75 N13       29.85S
Allentown      CLOUDY    72  61  68 N9        29.90F
Scranton       MOCLDY    62  60  93 E3        29.96F
$$

CTZ002-004>006-009-010-012-RIZ004-006-007-MAZ004-011-015-200800-
SOUTHERN NEW ENGLAND
 IN CT

CITY           SKY/WX    TMP DP  RH WIND       PRES   REMARKS
Bradley INTL   CLOUDY    70  65  84 N13       29.89F
Hartford       CLOUDY    71  65  81 N16G23    29.87F
Danbury        CLOUDY    71  64  78 NE8       29.88F
Wtrbury/Oxford CLOUDY    68  64  87 NE15      29.88F
Norwalk Harbor   N/A     70 N/A N/A N18G24      N/A
Bridgeport     PTCLDY    71  65  81 N18G25    29.80F
Meriden        CLOUDY    70  64  81 N13G22    29.85F
New Haven      MOCLDY    70  64  81 N20       29.81F
Chester        CLOUDY    70  64  83 N16G22    29.83F
Groton         CLOUDY    68  65  90 N21G29    29.79F
Wilimantic     CLOUDY    69  66  90 N12       29.87F

 IN RI

CITY           SKY/WX    TMP DP  RH WIND       PRES   REMARKS
Providence     CLOUDY    66  66 100 NE16      29.86F
Block Island   NOT AVBL
Westerly       CLOUDY    69  66  90 N16G22    29.81F
 IN MA

CITY           SKY/WX    TMP DP  RH WIND       PRES   REMARKS
Boston         LGT RAIN  64  64 100 N17       29.91F FOG
Worcester      FOG       63  62  97 NE14G26   29.93F VSB 1/2
Westfield      CLOUDY    70  65  84 N13G23    29.91F
Provincetown   CLOUDY    64  63  96 NE13G21   29.87F FOG
Nantucket      CLOUDY    66  66 100 NE16      29.77S FOG
$$

ANZ330-335-338-340-345-350-353-355-200800-
COASTAL MARINE OBSERVATIONS


STATION/POSITION TIME  SKY/WX   TEMP    WIND        PRES    VSBY  WAVE
                                AIR SEA DIR/SP/G                  HT/PER
                 (UTC)          (F)     (DEG/KT/KT) (MB)    (MI)  (FT/S)
NY HARB ENTRANCE 0550            71 70   10/ 23/ 29 1007.9          8/11
20 S FIRE ISLAND 0550            69 67   20/ 25/ 31 1006.9         12/11
GREAT SOUTH BAY  0630            70 72   20/ 19/ 25   N/A
23 SSW MONTAUK P 0550            67 67              1006.6         14/13
15 E BARNEGAT LI 0630               69                N/A          12/12
HUDSON CANYON    0550            69 69   20/ 31/ 37 1001.2         16/11
KINGS POINT      0624            72 71   60/ 11/ 16 1010.8
EXECUTION ROCKS  0645            72      40/ 16/ 21   N/A
WESTERN LI SOUND NOT AVBL
CENTRAL LI SOUND 0630            71      20/ 21/ 27   N/A           3
EASTERN LI SOUND NOT AVBL
ROBBINS REEF     0624            72     360/ 15/ 23 1010.6
$$


>>>>>>>>>>>>>>>>>>>>>>>>>>>> KEY <<<<<<<<<<<<<<<<<<<<<<<<<<<
>                                                          <
>     SKY/WX - Sky Condition/Present Weather               <
>     TMP    - Temperature in Fahrenheit                   <
>     DP     - Dew Point in Fahrenheit                     <
>     RH     - Relative Humidity in Percent                <
>     WIND   - Direction (from) and Speed in MPH           <
>     PRES   - Mean Sea Level Pressure (inches of Hg)      <
>     WCI    - Wind Chill Index                            <
>     VSB    - VISIBILITY IN MILES                         <
>     HX     - HEAT INDEX                                  <
>     TC     - TEMPERATURE IN CELSIUS                      <
>     VRB    - VARIABLE WIND DIRECTION                     <
>                                                          <
>>>>>>>>>>>>>>>>>>>>>>>>>>>> KEY <<<<<<<<<<<<<<<<<<<<<<<<<<<




USA.gov is the U.S. government's official web portal to all federal, state and local government web resources and services.